Year,Month,Day,Hour,Minute,Value (Times are PST for windspeed in km/hr)
2016,03,14,00,00,20.00
2016,03,14,00,01,19.30
2016,03,14,00,02,15.70
2016,03,14,00,03,21.00
2016,03,14,00,04,20.80
2016,03,14,00,05,15.40
2016,03,14,00,06,17.50
2016,03,14,00,07,13.90
2016,03,14,00,08,15.40
2016,03,14,00,09,8.50
2016,03,14,00,10,9.90
2016,03,14,00,11,14.10
2016,03,14,00,12,19.70
2016,03,14,00,13,14.60
2016,03,14,00,14,18.30
2016,03,14,00,15,11.90
2016,03,14,00,16,12.80
2016,03,14,00,17,12.60
2016,03,14,00,18,14.20
2016,03,14,00,19,13.60
2016,03,14,00,20,17.20
2016,03,14,00,21,21.60
2016,03,14,00,22,18.10
2016,03,14,00,23,18.80
2016,03,14,00,24,20.00
2016,03,14,00,25,14.60
2016,03,14,00,26,21.60
2016,03,14,00,27,21.40
2016,03,14,00,28,16.50
2016,03,14,00,29,17.50
2016,03,14,00,30,21.10
2016,03,14,00,31,16.60
2016,03,14,00,32,11.80
2016,03,14,00,33,15.00
2016,03,14,00,34,11.90
2016,03,14,00,35,11.60
2016,03,14,00,36,7.10
2016,03,14,00,37,10.50
2016,03,14,00,38,8.60
2016,03,14,00,39,6.50
2016,03,14,00,40,7.00
2016,03,14,00,41,6.80
2016,03,14,00,42,6.80
2016,03,14,00,43,9.50
2016,03,14,00,44,5.50
2016,03,14,00,45,7.90
2016,03,14,00,46,6.60
2016,03,14,00,47,8.60
2016,03,14,00,48,6.40
2016,03,14,00,49,6.30
2016,03,14,00,50,6.60
2016,03,14,00,51,6.30
2016,03,14,00,52,8.60
2016,03,14,00,53,9.30
2016,03,14,00,54,9.50
2016,03,14,00,55,9.60
2016,03,14,00,56,10.50
2016,03,14,00,57,14.50
2016,03,14,00,58,13.00
2016,03,14,00,59,10.00
2016,03,14,01,00,11.20
2016,03,14,01,01,12.70
2016,03,14,01,02,9.40
2016,03,14,01,03,10.60
2016,03,14,01,04,13.00
2016,03,14,01,05,8.40
2016,03,14,01,06,8.10
2016,03,14,01,07,12.90
2016,03,14,01,08,9.80
2016,03,14,01,09,7.80
2016,03,14,01,10,12.20
2016,03,14,01,11,14.20
2016,03,14,01,12,12.50
2016,03,14,01,13,7.90
2016,03,14,01,14,12.60
2016,03,14,01,15,7.80
2016,03,14,01,16,8.80
2016,03,14,01,17,10.70
2016,03,14,01,18,11.60
2016,03,14,01,19,10.70
2016,03,14,01,20,6.60
2016,03,14,01,21,9.80
2016,03,14,01,22,10.90
2016,03,14,01,23,11.20
2016,03,14,01,24,13.40
2016,03,14,01,25,13.50
2016,03,14,01,26,14.30
2016,03,14,01,27,8.60
2016,03,14,01,28,13.40
2016,03,14,01,29,11.30
2016,03,14,01,30,8.10
2016,03,14,01,31,12.20
2016,03,14,01,32,14.80
2016,03,14,01,33,8.90
2016,03,14,01,34,9.70
2016,03,14,01,35,11.70
2016,03,14,01,36,13.80
2016,03,14,01,37,18.50
2016,03,14,01,38,14.50
2016,03,14,01,39,12.40
2016,03,14,01,40,11.50
2016,03,14,01,41,6.40
2016,03,14,01,42,9.30
2016,03,14,01,43,14.20
2016,03,14,01,44,18.80
2016,03,14,01,45,14.70
2016,03,14,01,46,13.90
2016,03,14,01,47,15.80
2016,03,14,01,48,14.80
2016,03,14,01,49,13.60
2016,03,14,01,50,13.50
2016,03,14,01,51,15.10
2016,03,14,01,52,8.90
2016,03,14,01,53,14.20
2016,03,14,01,54,12.90
2016,03,14,01,55,9.80
2016,03,14,01,56,9.70
2016,03,14,01,57,11.50
2016,03,14,01,58,10.70
2016,03,14,01,59,12.90
2016,03,14,02,00,12.20
2016,03,14,02,01,5.40
2016,03,14,02,02,8.20
2016,03,14,02,03,11.90
2016,03,14,02,04,9.80
2016,03,14,02,05,13.00
2016,03,14,02,06,13.60
2016,03,14,02,07,13.00
2016,03,14,02,08,11.30
2016,03,14,02,09,12.50
2016,03,14,02,10,14.10
2016,03,14,02,11,8.90
2016,03,14,02,12,10.60
2016,03,14,02,13,7.20
2016,03,14,02,14,8.70
2016,03,14,02,15,7.00
2016,03,14,02,16,7.00
2016,03,14,02,17,6.00
2016,03,14,02,18,13.90
2016,03,14,02,19,16.00
2016,03,14,02,20,11.20
2016,03,14,02,21,11.50
2016,03,14,02,22,14.50
2016,03,14,02,23,10.40
2016,03,14,02,24,14.20
2016,03,14,02,25,9.40
2016,03,14,02,26,12.90
2016,03,14,02,27,18.70
2016,03,14,02,28,13.60
2016,03,14,02,29,17.30
2016,03,14,02,30,10.40
2016,03,14,02,31,14.00
2016,03,14,02,32,13.70
2016,03,14,02,33,12.30
2016,03,14,02,34,20.30
2016,03,14,02,35,16.00
2016,03,14,02,36,14.70
2016,03,14,02,37,9.30
2016,03,14,02,38,11.90
2016,03,14,02,39,16.30
2016,03,14,02,40,14.60
2016,03,14,02,41,17.30
2016,03,14,02,42,17.80
2016,03,14,02,43,11.10
2016,03,14,02,44,7.00
2016,03,14,02,45,9.60
2016,03,14,02,46,8.70
2016,03,14,02,47,13.60
2016,03,14,02,48,15.40
2016,03,14,02,49,11.80
2016,03,14,02,50,14.10
2016,03,14,02,51,13.00
2016,03,14,02,52,8.50
2016,03,14,02,53,10.70
2016,03,14,02,54,10.90
2016,03,14,02,55,7.70
2016,03,14,02,56,4.70
2016,03,14,02,57,11.60
2016,03,14,02,58,11.20
2016,03,14,02,59,16.60
2016,03,14,03,00,17.60
2016,03,14,03,01,14.20
2016,03,14,03,02,14.20
2016,03,14,03,03,12.20
2016,03,14,03,04,13.80
2016,03,14,03,05,15.60
2016,03,14,03,06,12.60
2016,03,14,03,07,13.40
2016,03,14,03,08,12.80
2016,03,14,03,09,12.70
2016,03,14,03,10,13.80
2016,03,14,03,11,11.00
2016,03,14,03,12,12.80
2016,03,14,03,13,14.30
2016,03,14,03,14,9.60
2016,03,14,03,15,8.60
2016,03,14,03,16,10.50
2016,03,14,03,17,13.10
2016,03,14,03,18,12.30
2016,03,14,03,19,10.30
2016,03,14,03,20,8.90
2016,03,14,03,21,8.30
2016,03,14,03,22,14.20
2016,03,14,03,23,12.00
2016,03,14,03,24,6.80
2016,03,14,03,25,7.70
2016,03,14,03,26,8.60
2016,03,14,03,27,8.70
2016,03,14,03,28,9.10
2016,03,14,03,29,11.70
2016,03,14,03,30,10.60
2016,03,14,03,31,13.70
2016,03,14,03,32,10.80
2016,03,14,03,33,6.80
2016,03,14,03,34,10.00
2016,03,14,03,35,9.30
2016,03,14,03,36,10.90
2016,03,14,03,37,8.50
2016,03,14,03,38,9.30
2016,03,14,03,39,12.30
2016,03,14,03,40,7.80
2016,03,14,03,41,3.50
2016,03,14,03,42,7.50
2016,03,14,03,43,8.70
2016,03,14,03,44,12.20
2016,03,14,03,45,11.30
2016,03,14,03,46,11.70
2016,03,14,03,47,10.10
2016,03,14,03,48,10.70
2016,03,14,03,49,10.90
2016,03,14,03,50,20.00
2016,03,14,03,51,16.50
2016,03,14,03,52,15.10
2016,03,14,03,53,13.40
2016,03,14,03,54,21.10
2016,03,14,03,55,16.80
2016,03,14,03,56,12.90
2016,03,14,03,57,17.50
2016,03,14,03,58,18.80
2016,03,14,03,59,18.00
2016,03,14,04,00,20.10
2016,03,14,04,01,19.70
2016,03,14,04,02,13.90
2016,03,14,04,03,9.00
2016,03,14,04,04,15.80
2016,03,14,04,05,12.50
2016,03,14,04,06,13.30
2016,03,14,04,07,11.50
2016,03,14,04,08,15.10
2016,03,14,04,09,14.30
2016,03,14,04,10,15.20
2016,03,14,04,11,12.30
2016,03,14,04,12,11.70
2016,03,14,04,13,13.00
2016,03,14,04,14,13.00
2016,03,14,04,15,13.00
2016,03,14,04,16,11.30
2016,03,14,04,17,9.80
2016,03,14,04,18,13.60
2016,03,14,04,19,13.70
2016,03,14,04,20,6.60
2016,03,14,04,21,7.10
2016,03,14,04,22,13.00
2016,03,14,04,23,10.30
2016,03,14,04,24,7.30
2016,03,14,04,25,13.90
2016,03,14,04,26,13.20
2016,03,14,04,27,8.20
2016,03,14,04,28,17.80
2016,03,14,04,29,10.10
2016,03,14,04,30,8.90
2016,03,14,04,31,14.30
2016,03,14,04,32,10.30
2016,03,14,04,33,8.60
2016,03,14,04,34,8.00
2016,03,14,04,35,11.90
2016,03,14,04,36,8.90
2016,03,14,04,37,5.70
2016,03,14,04,38,6.60
2016,03,14,04,39,8.30
2016,03,14,04,40,9.10
2016,03,14,04,41,6.50
2016,03,14,04,42,9.90
2016,03,14,04,43,14.90
2016,03,14,04,44,8.20
2016,03,14,04,45,10.50
2016,03,14,04,46,10.90
2016,03,14,04,47,12.40
2016,03,14,04,48,11.60
2016,03,14,04,49,11.20
2016,03,14,04,50,10.70
2016,03,14,04,51,9.60
2016,03,14,04,52,12.60
2016,03,14,04,53,10.10
2016,03,14,04,54,10.90
2016,03,14,04,55,15.40
2016,03,14,04,56,16.80
2016,03,14,04,57,16.70
2016,03,14,04,58,14.60
2016,03,14,04,59,16.50
2016,03,14,05,00,18.50
2016,03,14,05,01,17.30
2016,03,14,05,02,20.00
2016,03,14,05,03,17.00
2016,03,14,05,04,15.60
2016,03,14,05,05,17.70
2016,03,14,05,06,11.60
2016,03,14,05,07,19.20
2016,03,14,05,08,16.70
2016,03,14,05,09,14.20
2016,03,14,05,10,12.80
2016,03,14,05,11,19.10
2016,03,14,05,12,17.90
2016,03,14,05,13,18.00
2016,03,14,05,14,16.80
2016,03,14,05,15,16.50
2016,03,14,05,16,12.20
2016,03,14,05,17,15.60
2016,03,14,05,18,19.00
2016,03,14,05,19,19.50
2016,03,14,05,20,18.70
2016,03,14,05,21,18.60
2016,03,14,05,22,17.50
2016,03,14,05,23,16.00
2016,03,14,05,24,15.90
2016,03,14,05,25,12.10
2016,03,14,05,26,14.80
2016,03,14,05,27,13.10
2016,03,14,05,28,13.00
2016,03,14,05,29,12.70
2016,03,14,05,30,14.40
2016,03,14,05,31,12.50
2016,03,14,05,32,10.50
2016,03,14,05,33,12.10
2016,03,14,05,34,10.20
2016,03,14,05,35,14.70
2016,03,14,05,36,13.80
2016,03,14,05,37,11.70
2016,03,14,05,38,9.20
2016,03,14,05,39,9.30
2016,03,14,05,40,10.10
2016,03,14,05,41,12.40
2016,03,14,05,42,14.20
2016,03,14,05,43,16.90
2016,03,14,05,44,9.90
2016,03,14,05,45,16.60
2016,03,14,05,46,16.50
2016,03,14,05,47,14.30
2016,03,14,05,48,17.10
2016,03,14,05,49,20.10
2016,03,14,05,50,12.20
2016,03,14,05,51,11.50
2016,03,14,05,52,18.80
2016,03,14,05,53,13.20
2016,03,14,05,54,15.70
2016,03,14,05,55,16.50
2016,03,14,05,56,14.30
2016,03,14,05,57,18.70
2016,03,14,05,58,16.60
2016,03,14,05,59,13.00
2016,03,14,06,00,15.90
2016,03,14,06,01,17.30
2016,03,14,06,02,15.70
2016,03,14,06,03,17.90
2016,03,14,06,04,16.50
2016,03,14,06,05,17.40
2016,03,14,06,06,14.20
2016,03,14,06,07,10.10
2016,03,14,06,08,11.30
2016,03,14,06,09,9.70
2016,03,14,06,10,10.70
2016,03,14,06,11,8.60
2016,03,14,06,12,12.20
2016,03,14,06,13,11.90
2016,03,14,06,14,14.20
2016,03,14,06,15,10.30
2016,03,14,06,16,12.60
2016,03,14,06,17,11.60
2016,03,14,06,18,12.60
2016,03,14,06,19,10.80
2016,03,14,06,20,10.10
2016,03,14,06,21,10.50
2016,03,14,06,22,11.70
2016,03,14,06,23,9.50
2016,03,14,06,24,15.80
2016,03,14,06,25,10.70
2016,03,14,06,26,10.40
2016,03,14,06,27,10.10
2016,03,14,06,28,9.70
2016,03,14,06,29,8.50
2016,03,14,06,30,14.40
2016,03,14,06,31,8.10
2016,03,14,06,32,5.50
2016,03,14,06,33,7.10
2016,03,14,06,34,15.20
2016,03,14,06,35,9.40
2016,03,14,06,36,8.90
2016,03,14,06,37,8.60
2016,03,14,06,38,8.00
2016,03,14,06,39,14.20
2016,03,14,06,40,7.60
2016,03,14,06,41,5.80
2016,03,14,06,42,11.20
2016,03,14,06,43,12.20
2016,03,14,06,44,11.90
2016,03,14,06,45,11.30
2016,03,14,06,46,8.60
2016,03,14,06,47,8.40
2016,03,14,06,48,13.00
2016,03,14,06,49,14.60
2016,03,14,06,50,11.60
2016,03,14,06,51,13.50
2016,03,14,06,52,11.70
2016,03,14,06,53,15.20
2016,03,14,06,54,17.40
2016,03,14,06,55,15.90
2016,03,14,06,56,12.90
2016,03,14,06,57,13.00
2016,03,14,06,58,12.80
2016,03,14,06,59,11.20
2016,03,14,07,00,14.40
2016,03,14,07,01,9.00
2016,03,14,07,02,16.60
2016,03,14,07,03,15.30
2016,03,14,07,04,17.00
2016,03,14,07,05,10.40
2016,03,14,07,06,12.70
2016,03,14,07,07,10.10
2016,03,14,07,08,9.50
2016,03,14,07,09,9.20
2016,03,14,07,10,12.60
2016,03,14,07,11,13.80
2016,03,14,07,12,11.10
2016,03,14,07,13,16.30
2016,03,14,07,14,13.80
2016,03,14,07,15,15.20
2016,03,14,07,16,13.50
2016,03,14,07,17,8.00
2016,03,14,07,18,10.30
2016,03,14,07,19,7.60
2016,03,14,07,20,9.10
2016,03,14,07,21,6.00
2016,03,14,07,22,12.50
2016,03,14,07,23,12.00
2016,03,14,07,24,11.60
2016,03,14,07,25,10.30
2016,03,14,07,26,10.60
2016,03,14,07,27,10.10
2016,03,14,07,28,23.00
2016,03,14,07,29,17.30
2016,03,14,07,30,12.00
2016,03,14,07,31,13.20
2016,03,14,07,32,17.40
2016,03,14,07,33,10.50
2016,03,14,07,34,9.50
2016,03,14,07,35,13.70
2016,03,14,07,36,12.30
2016,03,14,07,37,9.50
2016,03,14,07,38,12.00
2016,03,14,07,39,7.00
2016,03,14,07,40,11.10
2016,03,14,07,41,8.40
2016,03,14,07,42,6.30
2016,03,14,07,43,10.00
2016,03,14,07,44,15.10
2016,03,14,07,45,9.60
2016,03,14,07,46,7.80
2016,03,14,07,47,9.90
2016,03,14,07,48,10.60
2016,03,14,07,49,5.60
2016,03,14,07,50,4.30
2016,03,14,07,51,4.50
2016,03,14,07,52,8.20
2016,03,14,07,53,9.20
2016,03,14,07,54,7.00
2016,03,14,07,55,7.40
2016,03,14,07,56,10.40
2016,03,14,07,57,7.40
2016,03,14,07,58,4.80
2016,03,14,07,59,3.80
2016,03,14,08,00,3.80
2016,03,14,08,01,3.70
2016,03,14,08,02,2.30
2016,03,14,08,03,3.50
2016,03,14,08,04,2.60
2016,03,14,08,05,3.40
2016,03,14,08,06,4.10
2016,03,14,08,07,2.80
2016,03,14,08,08,3.60
2016,03,14,08,09,4.40
2016,03,14,08,10,4.40
2016,03,14,08,11,7.00
2016,03,14,08,12,5.30
2016,03,14,08,13,7.50
2016,03,14,08,14,5.40
2016,03,14,08,15,6.10
2016,03,14,08,16,7.80
2016,03,14,08,17,7.50
2016,03,14,08,18,5.70
2016,03,14,08,19,5.80
2016,03,14,08,20,7.30
2016,03,14,08,21,8.60
2016,03,14,08,22,7.50
2016,03,14,08,23,8.20
2016,03,14,08,24,7.70
2016,03,14,08,25,7.40
2016,03,14,08,26,6.00
2016,03,14,08,27,9.50
2016,03,14,08,28,7.70
2016,03,14,08,29,7.20
2016,03,14,08,30,13.10
2016,03,14,08,31,11.50
2016,03,14,08,32,8.20
2016,03,14,08,33,9.30
2016,03,14,08,34,16.20
2016,03,14,08,35,16.30
2016,03,14,08,36,8.40
2016,03,14,08,37,7.30
2016,03,14,08,38,5.60
2016,03,14,08,39,5.80
2016,03,14,08,40,7.10
2016,03,14,08,41,10.70
2016,03,14,08,42,12.80
2016,03,14,08,43,13.00
2016,03,14,08,44,9.50
2016,03,14,08,45,10.70
2016,03,14,08,46,5.40
2016,03,14,08,47,9.60
2016,03,14,08,48,10.20
2016,03,14,08,49,8.60
2016,03,14,08,50,7.10
2016,03,14,08,51,11.00
2016,03,14,08,52,9.50
2016,03,14,08,53,9.00
2016,03,14,08,54,11.90
2016,03,14,08,55,10.60
2016,03,14,08,56,13.20
2016,03,14,08,57,15.50
2016,03,14,08,58,12.60
2016,03,14,08,59,10.00
2016,03,14,09,00,9.40
2016,03,14,09,01,8.00
2016,03,14,09,02,9.80
2016,03,14,09,03,9.40
2016,03,14,09,04,7.70
2016,03,14,09,05,7.10
2016,03,14,09,06,7.20
2016,03,14,09,07,11.20
2016,03,14,09,08,8.60
2016,03,14,09,09,7.50
2016,03,14,09,10,10.10
2016,03,14,09,11,7.20
2016,03,14,09,12,5.40
2016,03,14,09,13,9.70
2016,03,14,09,14,6.00
2016,03,14,09,15,9.20
2016,03,14,09,16,13.20
2016,03,14,09,17,8.60
2016,03,14,09,18,11.10
2016,03,14,09,19,11.10
2016,03,14,09,20,11.40
2016,03,14,09,21,9.50
2016,03,14,09,22,10.80
2016,03,14,09,23,12.50
2016,03,14,09,24,7.90
2016,03,14,09,25,10.10
2016,03,14,09,26,9.40
2016,03,14,09,27,10.60
2016,03,14,09,28,10.40
2016,03,14,09,29,10.90
2016,03,14,09,30,8.80
2016,03,14,09,31,8.60
2016,03,14,09,32,9.20
2016,03,14,09,33,8.90
2016,03,14,09,34,9.30
2016,03,14,09,35,10.20
2016,03,14,09,36,7.60
2016,03,14,09,37,7.60
2016,03,14,09,38,6.40
2016,03,14,09,39,8.10
2016,03,14,09,40,8.10
2016,03,14,09,41,10.20
2016,03,14,09,42,9.60
2016,03,14,09,43,12.50
2016,03,14,09,44,9.50
2016,03,14,09,45,8.20
2016,03,14,09,46,8.80
2016,03,14,09,47,7.70
2016,03,14,09,48,8.20
2016,03,14,09,49,9.70
2016,03,14,09,50,8.50
2016,03,14,09,51,8.90
2016,03,14,09,52,10.50
2016,03,14,09,53,13.00
2016,03,14,09,54,8.60
2016,03,14,09,55,10.00
2016,03,14,09,56,10.90
2016,03,14,09,57,11.20
2016,03,14,09,58,7.70
2016,03,14,09,59,11.70
2016,03,14,10,00,7.60
2016,03,14,10,01,6.90
2016,03,14,10,02,9.60
2016,03,14,10,03,10.90
2016,03,14,10,04,9.30
2016,03,14,10,05,13.00
2016,03,14,10,06,9.80
2016,03,14,10,07,9.00
2016,03,14,10,08,7.40
2016,03,14,10,09,6.80
2016,03,14,10,10,8.50
2016,03,14,10,11,7.60
2016,03,14,10,12,6.80
2016,03,14,10,13,6.80
2016,03,14,10,14,7.50
2016,03,14,10,15,7.20
2016,03,14,10,16,7.20
2016,03,14,10,17,9.40
2016,03,14,10,18,6.20
2016,03,14,10,19,4.80
2016,03,14,10,20,8.10
2016,03,14,10,21,6.40
2016,03,14,10,22,7.70
2016,03,14,10,23,6.40
2016,03,14,10,24,8.40
2016,03,14,10,25,9.40
2016,03,14,10,26,4.80
2016,03,14,10,27,4.10
2016,03,14,10,28,7.30
2016,03,14,10,29,10.20
2016,03,14,10,30,7.00
2016,03,14,10,31,6.80
2016,03,14,10,32,6.40
2016,03,14,10,33,6.60
2016,03,14,10,34,5.60
2016,03,14,10,35,5.70
2016,03,14,10,36,6.60
2016,03,14,10,37,4.00
2016,03,14,10,38,4.80
2016,03,14,10,39,6.70
2016,03,14,10,40,7.30
2016,03,14,10,41,3.60
2016,03,14,10,42,3.90
2016,03,14,10,43,6.00
2016,03,14,10,44,6.50
2016,03,14,10,45,6.60
2016,03,14,10,46,5.10
2016,03,14,10,47,4.40
2016,03,14,10,48,6.20
2016,03,14,10,49,4.10
2016,03,14,10,50,4.80
2016,03,14,10,51,6.30
2016,03,14,10,52,7.40
2016,03,14,10,53,8.90
2016,03,14,10,54,7.20
2016,03,14,10,55,7.20
2016,03,14,10,56,7.30
2016,03,14,10,57,8.20
2016,03,14,10,58,7.70
2016,03,14,10,59,6.80
2016,03,14,11,00,5.70
2016,03,14,11,01,4.50
2016,03,14,11,02,7.60
2016,03,14,11,03,7.20
2016,03,14,11,04,5.50
2016,03,14,11,05,6.40
2016,03,14,11,06,8.50
2016,03,14,11,07,5.80
2016,03,14,11,08,8.70
2016,03,14,11,09,7.60
2016,03,14,11,10,7.80
2016,03,14,11,11,6.60
2016,03,14,11,12,5.60
2016,03,14,11,13,5.20
2016,03,14,11,14,7.50
2016,03,14,11,15,7.40
2016,03,14,11,16,4.00
2016,03,14,11,17,8.30
2016,03,14,11,18,7.40
2016,03,14,11,19,5.40
2016,03,14,11,20,6.30
2016,03,14,11,21,3.80
2016,03,14,11,22,3.30
2016,03,14,11,23,4.60
2016,03,14,11,24,5.20
2016,03,14,11,25,4.50
2016,03,14,11,26,2.40
2016,03,14,11,27,2.80
2016,03,14,11,28,4.00
2016,03,14,11,29,5.30
2016,03,14,11,30,6.30
2016,03,14,11,31,8.30
2016,03,14,11,32,6.70
2016,03,14,11,33,9.10
2016,03,14,11,34,9.10
2016,03,14,11,35,6.10
2016,03,14,11,36,6.10
2016,03,14,11,37,5.20
2016,03,14,11,38,3.90
2016,03,14,11,39,5.10
2016,03,14,11,40,5.60
2016,03,14,11,41,6.50
2016,03,14,11,42,4.60
2016,03,14,11,43,5.30
2016,03,14,11,44,8.50
2016,03,14,11,45,9.60
2016,03,14,11,46,7.60
2016,03,14,11,47,7.50
2016,03,14,11,48,8.50
2016,03,14,11,49,6.10
2016,03,14,11,50,11.40
2016,03,14,11,51,6.60
2016,03,14,11,52,9.30
2016,03,14,11,53,9.50
2016,03,14,11,54,4.70
2016,03,14,11,55,7.80
2016,03,14,11,56,7.20
2016,03,14,11,57,6.80
2016,03,14,11,58,12.00
2016,03,14,11,59,8.00
2016,03,14,12,00,5.50
2016,03,14,12,01,4.20
2016,03,14,12,02,4.60
2016,03,14,12,03,5.30
2016,03,14,12,04,6.40
2016,03,14,12,05,5.30
2016,03,14,12,06,8.80
2016,03,14,12,07,10.90
2016,03,14,12,08,9.80
2016,03,14,12,09,12.20
2016,03,14,12,10,8.50
2016,03,14,12,11,7.40
2016,03,14,12,12,7.70
2016,03,14,12,13,5.80
2016,03,14,12,14,7.80
2016,03,14,12,15,12.70
2016,03,14,12,16,13.10
2016,03,14,12,17,13.20
2016,03,14,12,18,11.30
2016,03,14,12,19,8.80
2016,03,14,12,20,10.80
2016,03,14,12,21,9.90
2016,03,14,12,22,9.30
2016,03,14,12,23,11.50
2016,03,14,12,24,10.10
2016,03,14,12,25,10.60
2016,03,14,12,26,8.10
2016,03,14,12,27,12.30
2016,03,14,12,28,7.00
2016,03,14,12,29,8.10
2016,03,14,12,30,6.70
2016,03,14,12,31,13.40
2016,03,14,12,32,10.50
2016,03,14,12,33,11.30
2016,03,14,12,34,11.30
2016,03,14,12,35,5.00
2016,03,14,12,36,8.60
2016,03,14,12,37,13.70
2016,03,14,12,38,6.90
2016,03,14,12,39,5.60
2016,03,14,12,40,4.70
2016,03,14,12,41,11.80
2016,03,14,12,42,6.70
2016,03,14,12,43,6.80
2016,03,14,12,44,9.10
2016,03,14,12,45,13.40
2016,03,14,12,46,11.10
2016,03,14,12,47,10.80
2016,03,14,12,48,9.60
2016,03,14,12,49,8.90
2016,03,14,12,50,11.60
2016,03,14,12,51,9.00
2016,03,14,12,52,12.60
2016,03,14,12,53,10.40
2016,03,14,12,54,13.10
2016,03,14,12,55,8.70
2016,03,14,12,56,8.30
2016,03,14,12,57,6.40
2016,03,14,12,58,6.40
2016,03,14,12,59,4.90
2016,03,14,13,00,8.60
2016,03,14,13,01,8.50
2016,03,14,13,02,9.80
2016,03,14,13,03,8.10
2016,03,14,13,04,11.30
2016,03,14,13,05,9.70
2016,03,14,13,06,9.70
2016,03,14,13,07,6.50
2016,03,14,13,08,11.40
2016,03,14,13,09,8.10
2016,03,14,13,10,12.20
2016,03,14,13,11,9.70
2016,03,14,13,12,6.80
2016,03,14,13,13,12.00
2016,03,14,13,14,10.20
2016,03,14,13,15,7.70
2016,03,14,13,16,8.80
2016,03,14,13,17,6.80
2016,03,14,13,18,11.10
2016,03,14,13,19,6.90
2016,03,14,13,20,7.00
2016,03,14,13,21,5.50
2016,03,14,13,22,3.80
2016,03,14,13,23,10.20
2016,03,14,13,24,13.60
2016,03,14,13,25,11.70
2016,03,14,13,26,10.70
2016,03,14,13,27,9.60
2016,03,14,13,28,8.90
2016,03,14,13,29,8.00
2016,03,14,13,30,5.30
2016,03,14,13,31,5.40
2016,03,14,13,32,6.50
2016,03,14,13,33,9.60
2016,03,14,13,34,14.60
2016,03,14,13,35,9.50
2016,03,14,13,36,10.90
2016,03,14,13,37,13.50
2016,03,14,13,38,8.40
2016,03,14,13,39,9.20
2016,03,14,13,40,9.50
2016,03,14,13,41,5.60
2016,03,14,13,42,4.50
2016,03,14,13,43,5.60
2016,03,14,13,44,9.80
2016,03,14,13,45,10.10
2016,03,14,13,46,5.10
2016,03,14,13,47,4.10
2016,03,14,13,48,7.30
2016,03,14,13,49,9.70
2016,03,14,13,50,8.50
2016,03,14,13,51,8.90
2016,03,14,13,52,13.80
2016,03,14,13,53,9.80
2016,03,14,13,54,8.30
2016,03,14,13,55,8.10
2016,03,14,13,56,11.60
2016,03,14,13,57,7.70
2016,03,14,13,58,11.30
2016,03,14,13,59,9.80
2016,03,14,14,00,8.50
2016,03,14,14,01,8.70
2016,03,14,14,02,9.70
2016,03,14,14,03,9.70
2016,03,14,14,04,7.70
2016,03,14,14,05,10.10
2016,03,14,14,06,6.20
2016,03,14,14,07,7.20
2016,03,14,14,08,9.30
2016,03,14,14,09,8.90
2016,03,14,14,10,7.50
2016,03,14,14,11,6.70
2016,03,14,14,12,6.80
2016,03,14,14,13,8.60
2016,03,14,14,14,7.50
2016,03,14,14,15,4.10
2016,03,14,14,16,6.00
2016,03,14,14,17,5.90
2016,03,14,14,18,7.70
2016,03,14,14,19,13.50
2016,03,14,14,20,8.70
2016,03,14,14,21,7.70
2016,03,14,14,22,6.20
2016,03,14,14,23,8.50
2016,03,14,14,24,8.20
2016,03,14,14,25,8.10
2016,03,14,14,26,9.60
2016,03,14,14,27,8.50
2016,03,14,14,28,8.60
2016,03,14,14,29,8.50
2016,03,14,14,30,7.70
2016,03,14,14,31,5.80
2016,03,14,14,32,6.50
2016,03,14,14,33,8.00
2016,03,14,14,34,10.40
2016,03,14,14,35,10.10
2016,03,14,14,36,6.10
2016,03,14,14,37,8.60
2016,03,14,14,38,13.00
2016,03,14,14,39,8.80
2016,03,14,14,40,8.40
2016,03,14,14,41,10.80
2016,03,14,14,42,8.40
2016,03,14,14,43,9.10
2016,03,14,14,44,8.70
2016,03,14,14,45,7.70
2016,03,14,14,46,6.40
2016,03,14,14,47,5.10
2016,03,14,14,48,8.00
2016,03,14,14,49,2.90
2016,03,14,14,50,5.30
2016,03,14,14,51,4.70
2016,03,14,14,52,4.60
2016,03,14,14,53,3.90
2016,03,14,14,54,5.40
2016,03,14,14,55,7.90
2016,03,14,14,56,11.10
2016,03,14,14,57,4.60
2016,03,14,14,58,6.40
2016,03,14,14,59,16.00
2016,03,14,15,00,17.80
2016,03,14,15,01,19.10
2016,03,14,15,02,12.20
2016,03,14,15,03,16.00
2016,03,14,15,04,14.50
2016,03,14,15,05,11.00
2016,03,14,15,06,10.70
2016,03,14,15,07,9.30
2016,03,14,15,08,12.30
2016,03,14,15,09,10.10
2016,03,14,15,10,8.40
2016,03,14,15,11,8.40
2016,03,14,15,12,9.70
2016,03,14,15,13,12.60
2016,03,14,15,14,9.20
2016,03,14,15,15,8.40
2016,03,14,15,16,13.80
2016,03,14,15,17,13.00
2016,03,14,15,18,14.90
2016,03,14,15,19,23.90
2016,03,14,15,20,20.40
2016,03,14,15,21,20.30
2016,03,14,15,22,17.00
2016,03,14,15,23,16.30
2016,03,14,15,24,18.40
2016,03,14,15,25,19.90
2016,03,14,15,26,19.10
2016,03,14,15,27,20.30
2016,03,14,15,28,12.50
2016,03,14,15,29,17.80
2016,03,14,15,30,14.80
2016,03,14,15,31,18.50
2016,03,14,15,32,12.70
2016,03,14,15,33,13.50
2016,03,14,15,34,19.10
2016,03,14,15,35,14.40
2016,03,14,15,36,17.50
2016,03,14,15,37,14.80
2016,03,14,15,38,15.40
2016,03,14,15,39,19.70
2016,03,14,15,40,15.00
2016,03,14,15,41,14.10
2016,03,14,15,42,9.50
2016,03,14,15,43,8.30
2016,03,14,15,44,14.70
2016,03,14,15,45,11.40
2016,03,14,15,46,8.30
2016,03,14,15,47,7.10
2016,03,14,15,48,7.00
2016,03,14,15,49,10.80
2016,03,14,15,50,12.90
2016,03,14,15,51,9.40
2016,03,14,15,52,13.00
2016,03,14,15,53,9.80
2016,03,14,15,54,8.00
2016,03,14,15,55,6.80
2016,03,14,15,56,9.20
2016,03,14,15,57,12.10
2016,03,14,15,58,8.10
2016,03,14,15,59,7.00
2016,03,14,16,00,5.70
2016,03,14,16,01,9.70
2016,03,14,16,02,8.40
2016,03,14,16,03,4.30
2016,03,14,16,04,6.20
2016,03,14,16,05,6.40
2016,03,14,16,06,6.50
2016,03,14,16,07,4.90
2016,03,14,16,08,6.10
2016,03,14,16,09,9.40
2016,03,14,16,10,9.40
2016,03,14,16,11,13.60
2016,03,14,16,12,7.20
2016,03,14,16,13,7.60
2016,03,14,16,14,6.60
2016,03,14,16,15,7.10
2016,03,14,16,16,10.20
2016,03,14,16,17,14.00
2016,03,14,16,18,10.60
2016,03,14,16,19,10.80
2016,03,14,16,20,10.10
2016,03,14,16,21,9.30
2016,03,14,16,22,11.60
2016,03,14,16,23,6.20
2016,03,14,16,24,11.10
2016,03,14,16,25,5.60
2016,03,14,16,26,4.60
2016,03,14,16,27,6.10
2016,03,14,16,28,6.60
2016,03,14,16,29,10.00
2016,03,14,16,30,7.90
2016,03,14,16,31,9.20
2016,03,14,16,32,13.10
2016,03,14,16,33,11.30
2016,03,14,16,34,14.70
2016,03,14,16,35,12.70
2016,03,14,16,36,17.90
2016,03,14,16,37,13.90
2016,03,14,16,38,13.20
2016,03,14,16,39,14.90
2016,03,14,16,40,11.00
2016,03,14,16,41,12.90
2016,03,14,16,42,15.00
2016,03,14,16,43,17.90
2016,03,14,16,44,15.10
2016,03,14,16,45,17.10
2016,03,14,16,46,15.30
2016,03,14,16,47,14.50
2016,03,14,16,48,14.60
2016,03,14,16,49,20.50
2016,03,14,16,50,18.00
2016,03,14,16,51,16.70
2016,03,14,16,52,16.30
2016,03,14,16,53,15.80
2016,03,14,16,54,19.20
2016,03,14,16,55,21.20
2016,03,14,16,56,15.20
2016,03,14,16,57,13.40
2016,03,14,16,58,10.10
2016,03,14,16,59,13.40
2016,03,14,17,00,20.70
2016,03,14,17,01,21.70
2016,03,14,17,02,22.30
2016,03,14,17,03,15.70
2016,03,14,17,04,19.20
2016,03,14,17,05,16.10
2016,03,14,17,06,18.40
2016,03,14,17,07,14.10
2016,03,14,17,08,25.00
2016,03,14,17,09,19.70
2016,03,14,17,10,12.10
2016,03,14,17,11,22.50
2016,03,14,17,12,17.10
2016,03,14,17,13,16.00
2016,03,14,17,14,20.00
2016,03,14,17,15,16.80
2016,03,14,17,16,8.90
2016,03,14,17,17,14.90
2016,03,14,17,18,14.50
2016,03,14,17,19,13.80
2016,03,14,17,20,16.70
2016,03,14,17,21,17.40
2016,03,14,17,22,17.80
2016,03,14,17,23,13.40
2016,03,14,17,24,15.90
2016,03,14,17,25,14.30
2016,03,14,17,26,18.50
2016,03,14,17,27,19.20
2016,03,14,17,28,18.40
2016,03,14,17,29,17.50
2016,03,14,17,30,17.50
2016,03,14,17,31,16.70
2016,03,14,17,32,13.00
2016,03,14,17,33,12.10
2016,03,14,17,34,17.50
2016,03,14,17,35,18.40
2016,03,14,17,36,16.80
2016,03,14,17,37,14.90
2016,03,14,17,38,19.60
2016,03,14,17,39,20.00
2016,03,14,17,40,19.70
2016,03,14,17,41,19.30